Weerawila Airport

Jump to: basic info | weather | frequencies | runways | comments

Related pages: nearby airports | nearby navaids | notams | map

Basic information (top)

Codes: WRZ VCCW
Location: lon 6.254490, lat 81.235199, elev 50 ft / 15 m msl
Status: small_airport
Scheduled airline service: yes
Links: Wikipedia Mobile

Weather (top)

Current conditions for Mattala Rajapaksa International Airport 7nm (13km) SW (rec'd 2014/09/02 17:10Z):

VCRI 021710Z 22005KT 9999 FEW016 26/23 Q1012 NOSIG

Airport forecast for Bandaranaike International Colombo Airport 98nm (181km) NW (rec'd 2014/09/01 00:00Z):

TAF VCBI 012140Z 0200/0306 23008KT 9999 SCT016 TX30/0208Z TN27/0223Z PROB40 
      TEMPO 0200/0203 0210/0215 6000 -SHRA SCT010 BKN016

Frequencies (top)

Verify before use: may be inaccurate or out of date.

TWR: 118.1 MHz (TWR)

Runways (top)

07/25: 4,000 x 93 ft (1,219 x 28 m) — paved — not lighted

Latest comments (top)

No comments yet for Weerawila Airport

More... (top)

See also NOTAMs and nearby airports and navaids, or visit the Weerawila Airport page at the main OurAirports website..